Time,TemperatureF,DewpointF,PressureIn,WindDirection,WindDirectionDegrees,WindSpeedMPH,WindSpeedGustMPH,Humidity,HourlyPrecipIn,Conditions,Clouds,dailyrainin,SoftwareType,DateUTC
2013-03-24 00:02:00,27.0,27.0,30.13,North,354,6.0,9.0,99,0.00,,,0.00,,2013-03-24 05:02:00,
2013-03-24 00:12:00,27.0,27.0,30.13,North,354,6.0,9.0,99,0.00,,,0.00,,2013-03-24 05:12:00,
2013-03-24 00:22:00,27.0,27.0,30.12,NNW,339,12.0,14.0,98,0.00,,,0.00,,2013-03-24 05:22:00,
2013-03-24 00:32:00,27.0,26.0,30.11,NNW,334,10.0,15.0,96,0.00,,,0.00,,2013-03-24 05:32:00,
2013-03-24 00:42:00,27.0,26.0,30.11,NNW,334,10.0,15.0,96,0.00,,,0.00,,2013-03-24 05:42:00,
2013-03-24 00:52:00,27.0,26.0,30.11,NNW,344,9.0,18.0,97,0.00,,,0.00,,2013-03-24 05:52:00,
2013-03-24 01:02:00,27.0,26.0,30.11,NNW,338,8.0,10.0,96,0.00,,,0.00,,2013-03-24 06:02:00,
2013-03-24 01:12:00,27.0,26.0,30.11,NNW,338,8.0,10.0,96,0.00,,,0.00,,2013-03-24 06:12:00,
2013-03-24 01:22:00,27.0,26.0,30.12,NNW,339,8.0,12.0,95,0.00,,,0.00,,2013-03-24 06:22:00,
2013-03-24 01:32:00,27.0,26.0,30.12,North,352,7.0,10.0,96,0.00,,,0.00,,2013-03-24 06:32:00,
2013-03-24 01:42:00,27.0,26.0,30.12,North,352,7.0,10.0,96,0.00,,,0.00,,2013-03-24 06:42:00,
2013-03-24 01:52:00,27.0,26.0,30.11,NNW,333,10.0,12.0,96,0.00,,,0.00,,2013-03-24 06:52:00,
2013-03-24 02:02:00,27.0,26.0,30.11,NNW,338,7.0,9.0,97,0.00,,,0.00,,2013-03-24 07:02:00,
2013-03-24 02:12:00,27.0,26.0,30.11,NNW,338,7.0,9.0,97,0.00,,,0.00,,2013-03-24 07:12:00,
2013-03-24 02:22:00,27.0,27.0,30.12,NW,325,6.0,10.0,98,0.00,,,0.00,,2013-03-24 07:22:00,
2013-03-24 02:32:00,26.0,26.0,30.12,NW,323,7.0,9.0,99,0.00,,,0.00,,2013-03-24 07:32:00,
2013-03-24 02:42:00,26.0,26.0,30.12,NW,323,7.0,9.0,99,0.00,,,0.00,,2013-03-24 07:42:00,
2013-03-24 02:52:00,26.0,26.0,30.12,NNW,334,8.0,10.0,99,0.00,,,0.00,,2013-03-24 07:52:00,
2013-03-24 03:03:00,26.0,26.0,30.11,NNW,333,7.0,10.0,99,0.00,,,0.00,,2013-03-24 08:03:00,
2013-03-24 03:12:00,26.0,26.0,30.11,NNW,333,7.0,10.0,99,0.00,,,0.00,,2013-03-24 08:12:00,
2013-03-24 03:22:00,26.0,26.0,30.11,NW,326,7.0,8.0,99,0.00,,,0.00,,2013-03-24 08:22:00,
2013-03-24 03:32:00,26.0,26.0,30.11,NNW,334,8.0,9.0,99,0.00,,,0.00,,2013-03-24 08:32:00,
2013-03-24 03:42:00,26.0,26.0,30.11,NNW,334,8.0,9.0,99,0.00,,,0.00,,2013-03-24 08:42:00,
2013-03-24 03:52:00,26.0,26.0,30.10,NNW,335,7.0,7.0,99,0.00,,,0.00,,2013-03-24 08:52:00,
2013-03-24 04:02:00,26.0,26.0,30.10,NNW,336,6.0,9.0,99,0.00,,,0.00,,2013-03-24 09:02:00,
2013-03-24 04:12:00,26.0,26.0,30.10,NNW,336,6.0,9.0,99,0.00,,,0.00,,2013-03-24 09:12:00,
2013-03-24 04:22:00,26.0,25.0,30.09,NW,325,8.0,10.0,96,0.00,,,0.00,,2013-03-24 09:22:00,
2013-03-24 04:33:00,26.0,25.0,30.09,NNW,332,10.0,15.0,96,0.00,,,0.00,,2013-03-24 09:33:00,
2013-03-24 04:42:00,26.0,25.0,30.09,NNW,332,10.0,15.0,96,0.00,,,0.00,,2013-03-24 09:42:00,
2013-03-24 04:52:00,26.0,25.0,30.08,NNW,331,8.0,13.0,96,0.00,,,0.00,,2013-03-24 09:52:00,
2013-03-24 05:02:00,26.0,25.0,30.07,NW,322,12.0,14.0,95,0.00,,,0.00,,2013-03-24 10:02:00,
2013-03-24 05:12:00,26.0,25.0,30.07,NW,322,12.0,14.0,95,0.00,,,0.00,,2013-03-24 10:12:00,
2013-03-24 05:22:00,26.0,25.0,30.07,NW,322,9.0,12.0,95,0.00,,,0.00,,2013-03-24 10:22:00,
2013-03-24 05:32:00,26.0,25.0,30.07,NW,321,12.0,14.0,94,0.00,,,0.00,,2013-03-24 10:32:00,
2013-03-24 05:42:00,26.0,25.0,30.07,NW,321,12.0,14.0,94,0.00,,,0.00,,2013-03-24 10:42:00,
2013-03-24 05:52:00,26.0,25.0,30.07,NW,320,10.0,13.0,95,0.00,,,0.00,,2013-03-24 10:52:00,
2013-03-24 06:03:00,26.0,25.0,30.07,NW,317,12.0,14.0,94,0.00,,,0.00,,2013-03-24 11:03:00,
2013-03-24 06:12:00,26.0,25.0,30.07,NW,317,12.0,14.0,94,0.00,,,0.00,,2013-03-24 11:12:00,
2013-03-24 06:22:00,26.0,25.0,30.07,NW,325,8.0,12.0,94,0.00,,,0.00,,2013-03-24 11:22:00,
2013-03-24 06:32:00,26.0,25.0,30.07,NNW,335,7.0,9.0,94,0.00,,,0.00,,2013-03-24 11:32:00,
2013-03-24 06:42:00,26.0,25.0,30.07,NNW,335,7.0,9.0,94,0.00,,,0.00,,2013-03-24 11:42:00,
2013-03-24 06:52:00,25.0,25.0,30.08,NW,318,9.0,12.0,98,0.00,,,0.00,,2013-03-24 11:52:00,
2013-03-24 07:02:00,25.0,25.0,30.08,NW,318,8.0,10.0,99,0.00,,,0.00,,2013-03-24 12:02:00,
2013-03-24 07:12:00,25.0,25.0,30.08,NW,318,8.0,10.0,99,0.00,,,0.00,,2013-03-24 12:12:00,
2013-03-24 07:22:00,25.0,25.0,30.08,NW,321,7.0,9.0,99,0.00,,,0.00,,2013-03-24 12:22:00,
2013-03-24 07:32:00,25.0,25.0,30.08,NW,316,8.0,10.0,99,0.00,,,0.00,,2013-03-24 12:32:00,
2013-03-24 07:42:00,25.0,25.0,30.08,NW,316,8.0,10.0,99,0.00,,,0.00,,2013-03-24 12:42:00,
2013-03-24 07:52:00,24.0,24.0,30.08,NW,319,8.0,13.0,99,0.00,,,0.00,,2013-03-24 12:52:00,
2013-03-24 08:02:00,24.0,24.0,30.08,NW,326,7.0,13.0,99,0.00,,,0.00,,2013-03-24 13:02:00,
2013-03-24 08:12:00,24.0,24.0,30.08,NW,326,7.0,13.0,99,0.00,,,0.00,,2013-03-24 13:12:00,
2013-03-24 08:22:00,24.0,24.0,30.07,NW,321,9.0,12.0,99,0.00,,,0.00,,2013-03-24 13:22:00,
2013-03-24 08:32:00,24.0,24.0,30.07,NW,307,12.0,15.0,99,0.00,,,0.00,,2013-03-24 13:32:00,
2013-03-24 08:42:00,24.0,24.0,30.07,NW,307,12.0,15.0,99,0.00,,,0.00,,2013-03-24 13:42:00,
2013-03-24 08:52:00,24.0,24.0,30.07,NW,312,10.0,14.0,99,0.00,,,0.00,,2013-03-24 13:52:00,
2013-03-24 09:02:00,24.0,24.0,30.06,NW,314,10.0,14.0,99,0.00,,,0.00,,2013-03-24 14:02:00,
2013-03-24 09:12:00,24.0,24.0,30.06,NW,314,10.0,14.0,99,0.00,,,0.00,,2013-03-24 14:12:00,
2013-03-24 09:22:00,24.0,24.0,30.07,NW,307,9.0,13.0,99,0.00,,,0.00,,2013-03-24 14:22:00,
2013-03-24 09:32:00,24.0,24.0,30.06,WNW,301,12.0,17.0,99,0.00,,,0.00,,2013-03-24 14:32:00,
2013-03-24 09:42:00,24.0,24.0,30.06,WNW,301,12.0,17.0,99,0.00,,,0.00,,2013-03-24 14:42:00,
2013-03-24 09:52:00,23.0,23.0,30.07,NW,312,12.0,17.0,99,0.00,,,0.00,,2013-03-24 14:52:00,
2013-03-24 10:02:00,23.0,23.0,30.07,WNW,297,12.0,18.0,99,0.00,,,0.00,,2013-03-24 15:02:00,
2013-03-24 10:12:00,23.0,23.0,30.07,WNW,297,12.0,18.0,99,0.00,,,0.00,,2013-03-24 15:12:00,
2013-03-24 10:22:00,23.0,21.0,30.07,NW,308,15.0,20.0,90,0.00,,,0.00,,2013-03-24 15:22:00,
2013-03-24 10:33:00,23.0,21.0,30.07,NW,318,12.0,14.0,92,0.00,,,0.00,,2013-03-24 15:33:00,
2013-03-24 10:43:00,23.0,21.0,30.07,NW,318,12.0,14.0,92,0.00,,,0.00,,2013-03-24 15:43:00,
2013-03-24 10:53:00,23.0,21.0,30.07,NW,315,12.0,20.0,90,0.00,,,0.00,,2013-03-24 15:53:00,
2013-03-24 11:02:00,24.0,22.0,30.08,NW,305,12.0,14.0,90,0.00,,,0.00,,2013-03-24 16:02:00,
2013-03-24 11:12:00,24.0,22.0,30.08,NW,305,12.0,14.0,90,0.00,,,0.00,,2013-03-24 16:12:00,
2013-03-24 11:22:00,24.0,21.0,30.07,NW,321,10.0,16.0,89,0.00,,,0.00,,2013-03-24 16:22:00,
2013-03-24 11:33:00,23.0,20.0,30.07,NW,310,15.0,20.0,87,0.00,,,0.00,,2013-03-24 16:33:00,
2013-03-24 11:42:00,23.0,20.0,30.07,NW,310,15.0,20.0,87,0.00,,,0.00,,2013-03-24 16:42:00,
2013-03-24 11:52:00,24.0,21.0,30.07,NW,318,12.0,18.0,89,0.00,,,0.00,,2013-03-24 16:52:00,
2013-03-24 12:02:00,24.0,21.0,30.07,NW,318,12.0,16.0,88,0.00,,,0.00,,2013-03-24 17:02:00,
2013-03-24 12:12:00,24.0,21.0,30.07,NW,318,12.0,16.0,88,0.00,,,0.00,,2013-03-24 17:12:00,
2013-03-24 12:22:00,24.0,21.0,30.07,NW,315,12.0,13.0,89,0.00,,,0.00,,2013-03-24 17:22:00,
2013-03-24 12:32:00,24.0,21.0,30.07,NW,317,10.0,18.0,89,0.00,,,0.00,,2013-03-24 17:32:00,
2013-03-24 12:42:00,24.0,21.0,30.07,NW,317,10.0,18.0,89,0.00,,,0.00,,2013-03-24 17:42:00,
2013-03-24 12:53:00,24.0,21.0,30.06,NW,313,12.0,20.0,88,0.00,,,0.00,,2013-03-24 17:53:00,
2013-03-24 13:02:00,24.0,21.0,30.06,NW,312,10.0,12.0,89,0.00,,,0.00,,2013-03-24 18:02:00,
2013-03-24 13:12:00,24.0,21.0,30.06,NW,312,10.0,12.0,89,0.00,,,0.00,,2013-03-24 18:12:00,
2013-03-24 13:22:00,25.0,22.0,30.06,NW,306,10.0,15.0,87,0.00,,,0.00,,2013-03-24 18:22:00,
2013-03-24 13:32:00,25.0,22.0,30.06,NW,305,12.0,15.0,87,0.00,,,0.00,,2013-03-24 18:32:00,
2013-03-24 13:42:00,25.0,22.0,30.06,NW,305,12.0,15.0,87,0.00,,,0.00,,2013-03-24 18:42:00,
2013-03-24 13:52:00,25.0,22.0,30.05,NW,304,9.0,13.0,88,0.00,,,0.00,,2013-03-24 18:52:00,
2013-03-24 14:02:00,25.0,22.0,30.06,WNW,297,12.0,16.0,88,0.00,,,0.00,,2013-03-24 19:02:00,
2013-03-24 14:12:00,25.0,22.0,30.06,WNW,297,12.0,16.0,88,0.00,,,0.00,,2013-03-24 19:12:00,
2013-03-24 14:22:00,25.0,22.0,30.05,NW,314,10.0,16.0,87,0.00,,,0.00,,2013-03-24 19:22:00,
2013-03-24 14:32:00,25.0,22.0,30.04,NW,313,10.0,13.0,88,0.00,,,0.00,,2013-03-24 19:32:00,
2013-03-24 14:42:00,25.0,22.0,30.04,NW,313,10.0,13.0,88,0.00,,,0.00,,2013-03-24 19:42:00,
2013-03-24 14:53:00,25.0,21.0,30.04,WNW,296,13.0,18.0,84,0.00,,,0.00,,2013-03-24 19:53:00,
2013-03-24 15:03:00,25.0,21.0,30.04,NW,310,13.0,17.0,84,0.00,,,0.00,,2013-03-24 20:03:00,
2013-03-24 15:12:00,25.0,21.0,30.04,NW,310,13.0,17.0,84,0.00,,,0.00,,2013-03-24 20:12:00,
2013-03-24 15:22:00,25.0,21.0,30.03,NW,310,14.0,18.0,84,0.00,,,0.00,,2013-03-24 20:22:00,
2013-03-24 15:32:00,25.0,21.0,30.03,NW,325,8.0,13.0,85,0.00,,,0.00,,2013-03-24 20:32:00,
2013-03-24 15:42:00,25.0,21.0,30.03,NW,325,8.0,13.0,85,0.00,,,0.00,,2013-03-24 20:42:00,
2013-03-24 15:53:00,26.0,22.0,30.03,WNW,302,13.0,16.0,83,0.00,,,0.00,,2013-03-24 20:53:00,
2013-03-24 16:02:00,26.0,22.0,30.03,WNW,295,12.0,18.0,83,0.00,,,0.00,,2013-03-24 21:02:00,
2013-03-24 16:12:00,26.0,22.0,30.03,WNW,295,12.0,18.0,83,0.00,,,0.00,,2013-03-24 21:12:00,
2013-03-24 16:22:00,26.0,21.0,30.03,NW,304,12.0,14.0,82,0.00,,,0.00,,2013-03-24 21:22:00,
2013-03-24 16:33:00,26.0,21.0,30.03,WNW,302,13.0,15.0,82,0.00,,,0.00,,2013-03-24 21:33:00,
2013-03-24 16:43:00,26.0,21.0,30.03,WNW,302,13.0,15.0,82,0.00,,,0.00,,2013-03-24 21:43:00,
2013-03-24 16:53:00,27.0,22.0,30.03,WNW,286,13.0,18.0,82,0.00,,,0.00,,2013-03-24 21:53:00,
2013-03-24 17:02:00,27.0,23.0,30.03,NW,309,10.0,17.0,83,0.00,,,0.00,,2013-03-24 22:02:00,
2013-03-24 17:13:00,27.0,22.0,30.03,WNW,303,12.0,14.0,82,0.00,,,0.00,,2013-03-24 22:13:00,
2013-03-24 17:22:00,27.0,22.0,30.03,WNW,303,12.0,14.0,82,0.00,,,0.00,,2013-03-24 22:22:00,
2013-03-24 17:33:00,27.0,22.0,30.03,NW,305,9.0,12.0,82,0.00,,,0.00,,2013-03-24 22:33:00,
2013-03-24 17:42:00,27.0,22.0,30.03,NW,305,9.0,12.0,82,0.00,,,0.00,,2013-03-24 22:42:00,
2013-03-24 17:52:00,27.0,23.0,30.03,NW,307,12.0,15.0,84,0.00,,,0.00,,2013-03-24 22:52:00,
2013-03-24 18:02:00,27.0,23.0,30.03,WNW,302,14.0,16.0,83,0.00,,,0.00,,2013-03-24 23:02:00,
2013-03-24 18:12:00,27.0,23.0,30.03,WNW,302,14.0,16.0,83,0.00,,,0.00,,2013-03-24 23:12:00,
2013-03-24 18:22:00,27.0,24.0,30.03,NW,306,10.0,13.0,87,0.00,,,0.00,,2013-03-24 23:22:00,
2013-03-24 18:32:00,27.0,24.0,30.03,WNW,297,7.0,14.0,90,0.00,,,0.00,,2013-03-24 23:32:00,
2013-03-24 18:42:00,27.0,24.0,30.03,WNW,297,7.0,14.0,90,0.00,,,0.00,,2013-03-24 23:42:00,
2013-03-24 18:52:00,27.0,26.0,30.04,WNW,295,10.0,15.0,94,0.00,,,0.00,,2013-03-24 23:52:00,
2013-03-24 19:02:00,27.0,26.0,30.04,NW,307,9.0,12.0,94,0.00,,,0.00,,2013-03-25 00:02:00,
2013-03-24 19:12:00,27.0,26.0,30.04,NW,307,9.0,12.0,94,0.00,,,0.00,,2013-03-25 00:12:00,
2013-03-24 19:22:00,27.0,26.0,30.05,NW,304,9.0,15.0,95,0.00,,,0.00,,2013-03-25 00:22:00,
2013-03-24 19:32:00,27.0,26.0,30.05,WNW,300,12.0,18.0,94,0.00,,,0.00,,2013-03-25 00:32:00,
2013-03-24 19:42:00,27.0,26.0,30.05,WNW,300,12.0,18.0,94,0.00,,,0.00,,2013-03-25 00:42:00,
2013-03-24 19:53:00,27.0,26.0,30.05,WNW,299,14.0,17.0,94,0.00,,,0.00,,2013-03-25 00:53:00,
2013-03-24 20:02:00,27.0,26.0,30.05,WNW,302,10.0,15.0,95,0.00,,,0.00,,2013-03-25 01:02:00,
2013-03-24 20:12:00,27.0,26.0,30.05,WNW,302,10.0,15.0,95,0.00,,,0.00,,2013-03-25 01:12:00,
2013-03-24 20:22:00,26.0,25.0,30.06,NW,313,13.0,17.0,96,0.00,,,0.00,,2013-03-25 01:22:00,
2013-03-24 20:32:00,26.0,25.0,30.06,NW,309,8.0,14.0,97,0.00,,,0.00,,2013-03-25 01:32:00,
2013-03-24 20:42:00,26.0,25.0,30.06,NW,309,8.0,14.0,97,0.00,,,0.00,,2013-03-25 01:42:00,
2013-03-24 20:52:00,25.0,25.0,30.06,WNW,302,13.0,15.0,99,0.00,,,0.00,,2013-03-25 01:52:00,
2013-03-24 21:02:00,25.0,25.0,30.07,NW,317,8.0,10.0,99,0.00,,,0.00,,2013-03-25 02:02:00,
2013-03-24 21:12:00,25.0,25.0,30.07,NW,317,8.0,10.0,99,0.00,,,0.00,,2013-03-25 02:12:00,
2013-03-24 21:22:00,25.0,25.0,30.07,NW,312,7.0,10.0,99,0.00,,,0.00,,2013-03-25 02:22:00,
2013-03-24 21:32:00,25.0,25.0,30.07,NW,310,9.0,13.0,99,0.00,,,0.00,,2013-03-25 02:32:00,
2013-03-24 21:42:00,25.0,25.0,30.08,NNW,328,8.0,8.0,99,0.00,,,0.00,,2013-03-25 02:42:00,
2013-03-24 21:52:00,25.0,25.0,30.08,NNW,328,8.0,8.0,99,0.00,,,0.00,,2013-03-25 02:52:00,
2013-03-24 22:02:00,25.0,25.0,30.08,NW,324,7.0,9.0,99,0.00,,,0.00,,2013-03-25 03:02:00,
2013-03-24 22:12:00,25.0,25.0,30.08,NW,324,7.0,9.0,99,0.00,,,0.00,,2013-03-25 03:12:00,
2013-03-24 22:22:00,25.0,25.0,30.08,NW,318,10.0,13.0,99,0.00,,,0.00,,2013-03-25 03:22:00,
2013-03-24 22:33:00,25.0,25.0,30.08,NW,314,9.0,14.0,99,0.00,,,0.00,,2013-03-25 03:33:00,
2013-03-24 22:42:00,26.0,26.0,30.09,NW,318,9.0,13.0,99,0.00,,,0.00,,2013-03-25 03:42:00,
2013-03-24 22:53:00,26.0,26.0,30.09,NW,318,9.0,13.0,99,0.00,,,0.00,,2013-03-25 03:53:00,
2013-03-24 23:02:00,26.0,26.0,30.09,NW,320,7.0,10.0,99,0.00,,,0.00,,2013-03-25 04:02:00,
2013-03-24 23:12:00,26.0,26.0,30.09,NW,320,7.0,10.0,99,0.00,,,0.00,,2013-03-25 04:12:00,
2013-03-24 23:22:00,26.0,26.0,30.09,NW,322,7.0,10.0,99,0.00,,,0.00,,2013-03-25 04:22:00,
2013-03-24 23:32:00,26.0,26.0,30.09,NW,321,7.0,10.0,99,0.00,,,0.00,,2013-03-25 04:32:00,
2013-03-24 23:42:00,26.0,26.0,30.09,NW,321,7.0,10.0,99,0.00,,,0.00,,2013-03-25 04:42:00,
2013-03-24 23:52:00,26.0,26.0,30.09,NNW,333,13.0,17.0,99,0.00,,,0.00,,2013-03-25 04:52:00,